Lexington Weather

Lexington, Massachusetts, USA

46°F
10/22/2019 2:20am 
  • Lexington Conditions: Mostly cloudy
  • Temperature: 46.4°F / 8.0°CWarmer 0.9°F than last hour.
  • Dew Point: 44.8°FIncreased 1.5°Fsince last hour.
  • Relative Humidity: 94%Increased 2.0% since last hour.
  • Wind: Calm, 10-min avg: Calm, gust: None
  • Barometer: 30.12 in Steady
  • Visibility: 9 miles
  • Rain Today: 0.00 in
  •   

Regional Weather Roundup
for Boston, MA

        
000
ASUS41 KBOX 201200
RWRBOX

REGIONAL WEATHER ROUNDUP
NATIONAL WEATHER SERVICE BOSTON/NORTON MA
800 AM EDT SUN OCT 20 2019

NOTE:  "FAIR" INDICATES FEW OR NO CLOUDS BELOW 12,000 FEET WITH NO 
SIGNIFICANT WEATHER AND/OR OBSTRUCTIONS TO VISIBILITY.

MAZALL-201300-
EASTERN MASSACHUSETTS
  
CITY           SKY/WX    TMP DP  RH WIND       PRES   REMARKS
BOSTON         MOCLDY    46  37  71 N6        30.08S                  
6HR MIN TEMP:  44; 6HR MAX TEMP:  50;                                

BEVERLY        FAIR      38  34  85 N5        30.08R                  
LAWRENCE       FAIR      37  34  89 CALM      30.11R                  
BEDFORD        FAIR      35  30  82 CALM      30.08S                  
BLUE HILL      NOT AVBL                                               
NORWOOD        FAIR      35  30  82 CALM      30.08S                  
MARSHFIELD     NOT AVBL                                               
PLYMOUTH       FAIR      38  35  89 CALM      30.07F                  
TAUNTON        FAIR      34  31  88 CALM      30.07F FOG              
NEW BEDFORD    FAIR      35  33  92 CALM      30.06F                  
$$

MAZALL-201300-
CAPE COD AND THE ISLANDS
  
CITY           SKY/WX    TMP DP  RH WIND       PRES   REMARKS
FALMOUTH       CLEAR     34  34 100 CALM      30.07S                  
HYANNIS        NOT AVBL                                               
CHATHAM        NOT AVBL                                               
PROVINCETOWN   FAIR      41  39  93 S3          N/A                   
NANTUCKET      FAIR      46  44  93 SE3       30.08R                  
MARTHAS VNYRD  FOG       36  34  92 NE3       30.07S VSB 1/4          
$$
 
MAZALL-201300-
CENTRAL AND WESTERN MASSACHUSETTS
  
CITY           SKY/WX    TMP DP  RH WIND       PRES   REMARKS
WORCESTER      FAIR      42  33  70 N7        30.06S                  
6HR MIN TEMP:  42; 6HR MAX TEMP:  47;                                

FITCHBURG      FAIR      35  32  88 CALM      30.09F                  
ORANGE         FAIR      32  30  92 CALM      30.08S                  
SPRINGFIELD    MOCLDY    33  32  97 CALM      30.06R                  
WESTFIELD      FAIR      33  31  92 N5        30.07R WCI  29          
NORTH ADAMS    FAIR      32  30  92 W3        30.05S                  
PITTSFIELD     FAIR      34  31  88 CALM      30.03R                  
$$
 
RIZALL-201300-
RHODE ISLAND
  
CITY           SKY/WX    TMP DP  RH WIND       PRES   REMARKS
PROVIDENCE     FAIR      39  37  92 N5        30.08S                  
6HR MIN TEMP:  36; 6HR MAX TEMP:  41;                                

NEWPORT        FAIR      44  41  89 CALM      30.06S                  
BLOCK ISLAND   FAIR      52  45  77 E5        30.06S                  
SMITHFIELD     FAIR     N/A N/A N/A NE3       30.07S                  
WESTERLY       FAIR      42  38  85 N3        30.06S                  
$$
 
CTZALL-201300-
CONNECTICUT
  
CITY           SKY/WX    TMP DP  RH WIND       PRES   REMARKS
BRADLEY INTL   MOCLDY    38  33  82 N3        30.06S                  
6HR MIN TEMP:  34; 6HR MAX TEMP:  38;                                

HARTFORD       FAIR      38  35  89 CALM      30.07R                  
BRIDGEPORT     FAIR      45  41  86 NE7       30.04S                  
DANBURY        FOG       37  37 100 CALM      30.06R VSB 1/4          
GROTON         NOT AVBL                                               
NEW HAVEN      FAIR      44  39  82 N7        30.05R                  
CHESTER        FAIR      41  39  93 CALM      30.05R                  
MERIDEN        FAIR      36  35  96 CALM      30.07R                  
WILLIMANTIC    MOCLDY    32  32 100 MISG      30.08R                  
OXFORD         FAIR      40  36  86 E5        30.04S                  
$$

MEZ002-015-021-024-NHZ003-005-008-011-012-014-VTZ005-008-201300-
NORTHERN NEW ENGLAND
  
CITY           SKY/WX    TMP DP  RH WIND       PRES   REMARKS
PORTLAND ME    MOCLDY    35  32  88 NW3       30.11S                  
6HR MIN TEMP:  33; 6HR MAX TEMP:  36;                                

BANGOR ME      FAIR      35  33  92 CALM      30.10S                  
CONCORD NH     FAIR      31  29  92 NE3       30.10R                  
MANCHESTER NH  MOCLDY    37  34  89 N3        30.08R                  
NASHUA NH      FAIR      34  34 100 CALM      30.10S                  
PORTSMOUTH NH  MOCLDY    36  35  93 CALM      30.08R                  
JAFFREY NH     FAIR      31  28  89 CALM      30.06S                  
KEENE NH       FOG       30  29  96 CALM      30.09S VSB 1/4          
BURLINGTON VT  MOCLDY    34  32  92 CALM      30.03S                  
MT. WASHINGTON NOT AVBL                                               
$$

NYZ052-076-201300-
EASTERN NEW YORK
  
CITY           SKY/WX    TMP DP  RH WIND       PRES   REMARKS
ALBANY         MOCLDY    38  35  89 CALM      30.05R                  
6HR MIN TEMP:  34; 6HR MAX TEMP:  38;                                

NEW YORK CITY  MOCLDY    52  48  86 N3        30.03R                  
6HR MIN TEMP:  51; 6HR MAX TEMP:  55;                                

$$
 
ANZALL-201300-
MARINE OBSERVATIONS
  
STATION/POSITION TIME  TEMP    WIND        PRES    VSBY  WAVE
                       AIR SEA DIR/SP/G                  HT/PER
                 (UTC) (F)     (DEG/KT/KT) (MB)    (MI)  (FT/S)
BOSTON BUOY      1050   53 56   30/  6/  6 1017.6          1/11
BUZZARDS BAY     1100   53      30/  6/  7 1018.3F
NANTUCKET SOUND  1130      56                N/A
MASS BAY-STELLWA NOT AVBL
ISLE OF SHOALS   1100   49      40/ 11/ 13 1018.0F
S OF BLOCK IS    1130      60                N/A           2/13
$$

......................KEY.........................
  SKY/WX - SKY CONDITION/PRESENT WEATHER
  TMP    - TEMPERATURE IN FAHRENHEIT
  DWPT   - DEWPOINT IN FAHRENHEIT
  RH     - RELATIVE HUMIDITY IN PERCENT
  WIND   - DIRECTION AND SPEED IN MPH
  PRES   - MEAN SEA LEVEL PRESSURE IN INCHES OF HG
  WCI    - WIND CHILL INDEX
  VSB    - VISIBILITY IN MILES
  HX     - HEAT INDEX
  TC     - TEMPERATURE IN CELSIUS
  VRB    - VARIABLE WIND DIRECTION
  N/A    - NOT AVAILABLE
  
      

Other recent Regional Weather Roundups

Tue Oct 22, 2:10am

Tue Oct 22, 2:00am

Tue Oct 22, 1:10am

Tue Oct 22, 1:00am

Tue Oct 22, 12:10am

Tue Oct 22, 12:00am

Mon Oct 21, 11:10pm

Mon Oct 21, 11:00pm

Mon Oct 21, 10:10pm

Mon Oct 21, 10:01pm

Mon Oct 21, 9:10pm

Mon Oct 21, 9:00pm

Mon Oct 21, 8:10pm

Mon Oct 21, 8:00pm

Mon Oct 21, 7:10pm

Mon Oct 21, 7:01pm

Mon Oct 21, 6:10pm

Mon Oct 21, 6:01pm

Mon Oct 21, 5:10pm

Mon Oct 21, 5:01pm

Mon Oct 21, 4:10pm

Mon Oct 21, 4:00pm

Mon Oct 21, 3:10pm

Mon Oct 21, 3:01pm

Mon Oct 21, 2:10pm

Mon Oct 21, 2:00pm

Mon Oct 21, 1:10pm

Mon Oct 21, 1:01pm

Mon Oct 21, 12:10pm

Mon Oct 21, 12:00pm

Mon Oct 21, 11:10am

Mon Oct 21, 11:00am

Mon Oct 21, 10:10am

Mon Oct 21, 10:00am

Mon Oct 21, 9:10am

Mon Oct 21, 9:00am

Mon Oct 21, 7:10am

Mon Oct 21, 7:00am

Mon Oct 21, 6:10am

Mon Oct 21, 6:00am

Mon Oct 21, 5:10am

Mon Oct 21, 5:00am

Mon Oct 21, 4:10am

Mon Oct 21, 4:00am

Mon Oct 21, 3:10am

Mon Oct 21, 3:00am

Mon Oct 21, 2:10am

Mon Oct 21, 2:01am

Mon Oct 21, 1:10am

Mon Oct 21, 1:00am

Mon Oct 21, 12:10am

Mon Oct 21, 12:00am

Sun Oct 20, 11:10pm

Sun Oct 20, 11:00pm

Sun Oct 20, 10:10pm

Sun Oct 20, 10:00pm

Sun Oct 20, 9:10pm

Sun Oct 20, 9:01pm

Sun Oct 20, 8:10pm

Sun Oct 20, 8:00pm

Sun Oct 20, 7:10pm

Sun Oct 20, 7:01pm

Sun Oct 20, 6:10pm

Sun Oct 20, 6:00pm

Sun Oct 20, 5:10pm

Sun Oct 20, 5:00pm

Sun Oct 20, 4:10pm

Sun Oct 20, 4:00pm

Sun Oct 20, 3:10pm

Sun Oct 20, 3:00pm

Sun Oct 20, 2:10pm

Sun Oct 20, 2:01pm

Sun Oct 20, 1:10pm

Sun Oct 20, 1:01pm

Sun Oct 20, 12:10pm

Sun Oct 20, 12:00pm

Sun Oct 20, 11:10am

Sun Oct 20, 11:00am

Sun Oct 20, 10:10am

Sun Oct 20, 10:00am

Sun Oct 20, 9:10am

Sun Oct 20, 9:00am

Sun Oct 20, 8:10am

Sun Oct 20, 7:10am

Sun Oct 20, 7:00am

Sun Oct 20, 6:10am

Sun Oct 20, 6:00am

Sun Oct 20, 5:10am

Sun Oct 20, 5:00am

Sun Oct 20, 4:10am

Sun Oct 20, 4:00am

Sun Oct 20, 3:10am

Sun Oct 20, 3:00am

Sun Oct 20, 2:10am

Sun Oct 20, 2:00am

Sun Oct 20, 1:10am

Sun Oct 20, 1:00am

Sun Oct 20, 12:10am

Sun Oct 20, 12:00am

Sat Oct 19, 11:10pm

Sat Oct 19, 11:00pm

Sat Oct 19, 10:10pm

Sat Oct 19, 10:00pm

Sat Oct 19, 9:10pm

Sat Oct 19, 9:00pm

Sat Oct 19, 8:10pm

Sat Oct 19, 8:00pm

Sat Oct 19, 7:10pm

Sat Oct 19, 7:00pm

Sat Oct 19, 6:10pm

Sat Oct 19, 6:00pm

Sat Oct 19, 5:10pm

Sat Oct 19, 5:00pm

Sat Oct 19, 4:10pm

Sat Oct 19, 4:00pm

Sat Oct 19, 3:10pm

Sat Oct 19, 3:01pm

Sat Oct 19, 2:10pm

Sat Oct 19, 2:00pm

Sat Oct 19, 1:10pm

Sat Oct 19, 1:01pm

Sat Oct 19, 12:10pm

Sat Oct 19, 12:00pm

Sat Oct 19, 11:10am

Sat Oct 19, 11:01am

Sat Oct 19, 10:10am

Sat Oct 19, 10:00am

Sat Oct 19, 9:10am

Sat Oct 19, 9:00am

Sat Oct 19, 8:10am

Sat Oct 19, 8:00am

Sat Oct 19, 7:10am

Sat Oct 19, 7:00am

Sat Oct 19, 6:10am

Sat Oct 19, 6:00am

Sat Oct 19, 5:10am

Sat Oct 19, 5:00am

Sat Oct 19, 4:10am

Sat Oct 19, 4:00am

Sat Oct 19, 3:10am

Sat Oct 19, 3:00am

Meta data:

ID: d421ddda-35c8-4cbd-b5f3-63dae52fdfc7
Link: https://api.weather.gov/products/d421ddda-35c8-4cbd-b5f3-63dae52fdfc7